カタリナ彗星

330P/Catalina (2016)

English version
Home page
Updated on February 7, 2017

---------------------------------------------------------------------

・ プロフィール

符号 330P/2015 U1
検出日 2015年10月22日
検出光度 19.7等
検出者 Krisztian Sarneczky (Konkoly Observatory)

・ 写真集

・ 軌道要素

Epoch 2016 Sept. 9.0 TT = JDT 2457640.5
T 2016 Aug. 29.96523 TT                                 MPCW
q   2.9530181            (2000.0)            P               Q
n   0.05850549     Peri.  186.94476     -0.51578149     -0.82111729
a   6.5716080      Node   294.37544     +0.79836709     -0.35718992
e   0.5506400      Incl.   15.56478     +0.31077235     -0.44517610
P  16.85
From 191 observations 1999 Nov. 5-2016 Mar. 31, mean residual 0".6.

・ 光度変化

        m1 = 11.0 + 5 logΔ + 10 log r

---------------------------------------------------------------------

軌道要素はM.P.E.C. 2016-H35に掲載されたものです。
光度グラフはComet for Windowsで作成したものです。

---------------------------------------------------------------------

Copyright(C) Seiichi Yoshida (comet@aerith.net). All rights reserved.